SCP
0 0 0 0 0 0 0 0 0 0 0 0 0 0 0 0 0 0 0 0 0 0 0 0 0 0 0 0 0 0 0 0 0 0 0 0 0 0 0 0 0 0 0 0
0 0 0 0 0 0 0 -0 -0 0 0 0 0 0 0 0 0 0 0 0 0 0 0 0 0 0 0 0 0 0 0 0 0 0 0 0 0 0 0 0 0 0 0 0
0 0 0 0 0 0 0 0 -0 -0 0 0 0 0 0 0 0 0 0 0 0 0 0 0 0 0 0 0 0 0 0 0 0 0 0 0 0 0 0 0 0 0 0 0
0 0 0 0 0 0 0 0 0 -0 0 0 0 0 0 0 0 0 0 0 0 0 0 0 0 0 0 0 0 0 0 0 0 0 0 0 0 0 0 0 0 0 0 0
0 0 0 0 0 0 0 0 0 0 0 0 0 0 0 0 0 0 0 0 0 0 0 0 0 0 0 0 0 0 0 0 0 0 0 0 0 0 0 0 0 0 0 0
0 0 0 0 0 0 0 0 0 0 0 0 0 0 0 0 0 0 0 0 0 0 0 0 0 0 0 0 0 0 0 0 0 0 0 0 0 0 0 0 0 0 0 0
0 0 0 0 0 0 0 0 0 0 0 0 0 0 0 0 0 0 0 0 0 0 0 0 0 0 0 0 0 0 0 0 0 0 0 0 0 0 0 0 0 0 0 0
0 0 0 0 0 0 0 0 0 0 0 0 0 0 0 0 0 0 0 0 0 0 0 0 0 0 0 0 0 0 0 0 0 0 0 0 0 0 0 0 0 0 0 0
0 0 0 0 0 0 0 0 0 0 0 0 0 0 0 0 0 0 0 0 0 0 0 0 0 0 0 0 0 0 0 0 0 0 0 0 0 0 0 0 0 0 0 0
0 0 0 0 0 0 0 0 0 0 0 0 0 0 0 0 0 0 0 0 0 0 0 0 0 0 0 0 0 0 0 0 0 0 0 0 0 0 0 0 0 0 0 0
0 0 0 0 0 0 0 0 0 0 0 0 0 0 0 0 0 0 0 0 0 0 0 0 0 0 0 0 0 0 0 0 0 0 0 0 0 0 0 0 0 0 0 0
0 0 0 0 0 0 0 0 0 0 0 0 0 0 0 0 0 0 0 0 0 0 0 0 0 0 0 0 0 0 0 0 0 0 0 0 0 0 0 0 0 0 0 0
0 0 0 0 0 0 0 0 0 0 0 0 0 0 0 0 0 0 0 0 0 0 0 0 0 0 0 0 0 0 0 0 0 0 0 0 0 0 0 0 0 0 0 0
0 0 0 0 0 0 0 0 0 0 0 0 0 0 0 0 0 0 0 0 0 0 0 0 0 0 0 0 0 0 0 0 0 0 0 0 0 0 0 0 0 0 0 0
0 0 0 0 0 0 0 0 0 0 0 0 0 0 0 0 0 0 0 0 0 0 0 0 0 0 0 0 0 0 0 0 0 0 0 0 0 0 0 0 0 0 0 0
0 0 0 0 0 0 0 0 0 0 0 0 0 0 0 0 0 0 0 0 0 0 0 0 0 0 0 0 0 0 0 0 0 0 0 0 0 0 0 0 0 0 0 0
0 0 0 0 0 0 0 0 0 0 0 0 0 0 0 0 0 0 0 0 0 0 0 0 0 0 0 0 0 0 0 0 0 0 0 0 0 0 0 0 0 0 0 0
0 0 0 0 0 0 0 0 0 0 0 0 0 0 0 0 0 0 0 0 0 0 0 0 0 0 0 0 0 0 0 0 0 0 0 0 0 0 0 0 0 0 0 0
0 0 0 0 0 0 0 0 0 0 0 0 0 0 0 0 0 0 0 0 0 0 0 0 0 0 0 0 0 0 0 0 0 0 0 0 0 0 0 0 0 0 0 0
0 0 0 0 0 0 0 0 0 0 0 0 0 0 0 0 0 0 0 0 0 0 0 0 0 0 0 0 0 0 0 0 0 0 0 0 0 0 0 0 0 0 0 0
0 0 0 0 0 0 0 0 0 0 0 0 0 0 0 0 0 0 0 0 0 0 0 0 0 0 0 0 0 0 0 0 0 0 0 0 0 0 0 0 0 0 0 0
0 0 0 0 0 0 0 0 0 0 0 0 0 0 0 0 0 0 0 0 0 0 0 0 0 0 0 0 0 0 0 0 0 0 0 0 0 0 0 0 0 0 0 0
0 0 0 0 0 0 0 0 0 0 0 0 0 0 0 0 0 0 0 0 0 0 0 0 0 0 0 0 0 0 0 0 0 0 0 0 0 0 0 0 0 0 0 0
0 0 0 0 0 0 0 0 0 0 0 0 0 0 0 0 0 0 0 0 0 0 0 0 0 0 0 0 0 0 0 0 0 0 0 0 0 0 0 0 0 0 0 0
0 0 0 0 0 0 0 0 0 0 0 0 0 0 0 0 0 0 0 0 0 0 0 0 0 0 0 0 0 0 0 0 0 0 0 0 0 0 0 0 0 0 0 0
0 0 0 0 0 0 0 0 0 0 0 0 0 0 0 0 0 0 0 0 0 0 0 0 0 0 0 0 0 0 0 0 0 0 0 0 0 0 0 0 0 0 0 0
0 0 0 0 0 0 0 0 0 0 0 0 0 0 0 0 0 0 0 0 0 0 0 0 0 0 0 0 0 0 0 0 0 0 0 0 0 0 0 0 0 0 0 0
Wind_Speed
6 4 5 7 7 7 9 10 10 8 8 6 4 3 2 2 1 0 1 1 1 0 1 1 1 1 1 1 0 1 1 1 1 1 2 2 3 3 3 3 4 4 5 5
7 6 7 9 9 9 10 10 11 10 9 4 3 3 3 3 3 2 1 1 1 1 1 1 1 1 1 1 0 0 1 1 1 2 1 2 2 2 2 3 4 4 4 4
7 5 7 9 7 9 8 8 9 10 7 3 3 3 4 3 3 2 1 1 1 2 2 2 1 1 1 1 0 0 1 1 2 2 2 2 2 2 2 3 3 4 4 4
6 6 9 0 1 4 7 7 7 7 5 5 4 3 3 3 3 2 1 2 2 2 3 2 2 1 1 1 1 1 1 1 1 2 2 2 2 2 3 3 3 4 4 4
6 8 8 4 3 3 5 6 5 6 5 4 3 4 4 3 3 2 1 2 2 2 3 3 2 2 2 2 2 2 2 2 2 2 2 2 3 3 3 3 3 3 3 4
7 8 6 1 2 2 6 6 2 4 4 4 5 6 2 2 2 1 1 1 1 2 2 2 2 2 2 2 2 2 2 3 3 3 3 3 3 3 3 3 4 4 3 4
9 8 5 1 1 4 6 1 1 2 3 3 5 4 1 1 1 1 1 1 1 2 2 2 2 2 2 2 2 2 3 3 3 3 3 3 3 3 3 3 4 4 4 4
7 8 5 3 4 5 3 2 1 2 3 3 3 2 1 1 1 1 1 1 2 2 2 2 2 3 3 2 2 2 2 3 3 3 3 3 3 3 3 3 4 4 4 3
5 4 2 2 3 3 3 3 2 3 3 3 3 2 2 2 2 2 2 2 2 2 2 2 2 3 3 3 3 2 2 3 3 3 3 3 3 3 3 3 3 3 3 3
6 6 5 4 4 4 4 4 4 3 3 3 3 3 3 3 3 2 2 2 2 3 3 2 2 3 3 3 3 3 3 3 3 3 3 3 3 3 2 2 3 3 3 3
8 6 5 5 5 5 4 3 3 2 2 3 3 4 4 3 3 3 3 3 3 3 4 3 3 3 3 3 3 4 4 3 3 3 3 3 3 2 3 3 2 3 3 3
6 5 6 4 3 4 4 4 3 3 3 3 3 4 4 4 3 3 3 3 4 4 4 4 3 3 3 3 4 4 3 3 3 2 2 3 3 2 1 3 1 2 2 4
7 5 6 4 4 4 4 4 3 4 4 4 4 4 4 4 4 4 4 4 4 4 4 4 3 3 3 3 3 4 4 3 3 3 3 3 3 3 3 2 3 3 3 3
5 5 5 5 4 4 4 3 3 4 4 4 4 4 4 4 4 4 4 4 4 4 4 4 4 4 3 3 3 3 3 3 3 3 3 3 3 3 3 3 2 2 2 3
6 6 6 4 4 4 3 3 4 4 4 4 4 4 4 4 4 4 4 4 4 4 4 4 4 4 3 3 3 3 3 2 3 3 3 3 3 3 3 3 3 3 2 2
5 5 5 5 5 4 4 4 5 5 4 4 4 4 4 4 4 4 4 3 4 4 4 4 4 4 3 3 3 3 2 2 3 3 3 3 3 3 3 3 3 3 3 3
5 5 5 5 5 5 5 4 4 4 4 4 4 4 3 3 3 3 3 3 3 3 3 3 3 3 3 3 3 3 2 2 3 3 3 3 3 4 4 4 4 4 3 3
6 5 5 5 5 5 4 4 3 3 3 3 3 3 3 3 4 3 3 2 2 3 3 3 3 3 3 3 3 2 2 2 3 3 3 3 3 4 4 4 4 5 4 3
4 4 4 4 4 4 4 3 3 2 2 2 2 3 3 3 3 3 3 3 3 4 4 3 3 3 3 3 3 3 3 3 3 3 3 3 4 4 4 4 5 5 5 4
2 3 3 3 3 3 3 2 2 2 1 2 2 2 3 3 3 3 3 3 3 3 4 3 3 3 3 3 3 3 3 3 3 3 3 3 4 4 4 5 5 5 5 5
2 2 2 2 2 3 3 2 2 2 2 2 3 3 3 3 3 3 3 4 3 3 3 3 3 3 3 2 4 3 3 3 3 3 3 4 4 4 4 5 5 5 5 5
2 2 2 2 2 2 2 2 2 2 2 3 3 3 3 3 3 3 4 4 3 3 3 3 3 3 3 3 3 4 4 4 4 3 4 4 4 4 5 5 5 5 5 5
3 3 3 3 3 2 2 2 3 2 3 3 4 4 4 3 3 3 4 3 3 3 3 3 4 4 5 4 4 4 4 4 4 4 4 4 5 5 5 6 5 5 5 5
4 4 3 3 3 3 3 3 3 2 3 3 4 4 3 3 3 3 3 3 4 4 4 4 5 6 6 4 4 4 4 5 5 5 5 5 5 5 5 5 6 5 6 7
4 4 4 3 3 3 4 3 3 3 3 3 4 4 4 3 3 3 3 4 4 5 4 4 6 7 6 5 5 5 5 5 5 5 5 5 5 5 6 6 6 6 6 6
4 4 3 4 4 3 3 3 3 3 3 3 3 3 3 3 4 4 4 4 5 5 5 4 4 5 5 5 5 5 5 5 5 6 6 6 6 6 6 6 8 7 6 6
4 3 3 3 3 3 3 3 3 3 3 4 4 4 4 4 4 4 5 4 4 4 4 4 4 4 4 5 5 5 5 5 5 5 6 6 6 6 6 8 7 6 6 7
Wind_Direction
271 280 264 263 257 245 247 259 266 270 267 265 261 259 248 235 224 163 124 123 128 86 27 21 25 26 330 296 300 280 258 248 250 242 229 233 233 229 227 231 236 233 226 224
251 248 255 258 256 247 248 254 256 261 263 268 266 249 234 221 204 198 192 233 289 316 324 332 354 335 273 270 305 290 275 273 273 259 246 239 241 240 236 236 241 237 231 226
254 250 256 249 247 240 239 240 248 256 266 247 237 228 231 218 205 213 231 262 286 309 321 321 306 278 275 292 273 244 262 267 268 259 252 251 242 237 239 236 238 243 241 237
261 249 247 323 91 241 243 245 250 263 267 247 240 231 231 219 216 224 253 282 301 315 318 313 302 272 234 233 236 238 255 268 274 278 272 261 254 251 247 244 236 241 248 246
248 254 257 227 209 225 241 249 247 256 257 248 227 215 215 209 222 232 264 299 307 312 310 304 299 276 247 234 238 246 261 272 276 273 269 267 267 266 264 260 251 248 248 246
239 253 257 202 127 224 245 243 220 244 247 229 215 235 213 154 199 232 265 310 329 320 316 313 306 266 246 240 238 248 264 273 277 274 262 262 267 272 274 267 263 258 252 249
241 248 256 54 142 194 230 302 86 239 245 227 238 280 352 154 222 245 276 313 315 305 305 312 298 267 259 262 265 278 281 277 273 270 264 261 266 267 269 269 269 265 260 254
233 241 239 115 174 220 293 14 285 266 261 249 261 291 292 263 261 252 257 274 284 286 295 302 291 270 266 276 290 287 282 279 279 279 278 272 265 266 265 265 264 263 263 258
243 264 2 180 226 280 301 275 271 269 263 252 255 268 276 271 269 270 270 276 278 281 287 287 282 276 273 285 288 277 268 268 272 277 276 279 271 261 262 261 263 268 266 262
248 250 252 252 253 257 265 272 276 271 259 247 250 257 263 267 271 274 274 273 272 272 275 277 278 276 280 281 271 262 259 265 269 272 278 283 280 269 262 257 259 260 262 267
248 257 258 243 243 253 260 266 268 270 264 260 260 265 271 275 277 277 275 272 268 267 268 267 267 271 276 276 263 257 258 261 264 269 276 279 277 279 270 272 283 273 271 274
259 262 260 260 258 254 253 257 264 265 270 273 270 267 271 275 276 273 272 272 268 269 268 265 261 266 269 265 259 259 261 265 266 266 267 266 270 268 247 256 282 267 288 288
276 286 281 289 273 254 254 263 269 274 278 278 277 274 273 276 274 271 271 271 269 270 268 266 264 268 270 265 259 257 257 262 264 263 260 259 260 265 263 240 220 222 235 257
265 258 264 265 267 266 264 265 269 274 275 273 274 274 271 272 271 267 270 275 273 269 263 262 260 266 272 265 257 257 260 262 262 260 261 263 263 265 267 272 275 268 228 229
254 255 266 274 273 267 262 260 267 271 274 273 271 269 269 267 266 269 276 278 269 261 261 261 262 270 279 264 248 247 253 253 252 259 260 262 264 265 265 264 266 272 278 253
250 252 254 254 258 262 262 261 267 270 272 274 272 271 270 266 267 270 275 268 258 258 265 268 271 277 273 260 250 250 246 251 263 260 255 254 256 255 257 261 267 271 274 285
235 242 250 255 260 264 269 272 270 271 270 269 271 273 266 262 263 268 272 269 265 270 273 272 275 276 263 254 248 244 243 230 239 256 254 253 257 260 260 261 265 269 273 287
253 257 256 256 256 262 272 280 278 274 268 271 269 261 259 262 269 276 277 277 276 279 280 279 281 272 260 252 248 245 238 243 243 251 253 251 258 261 263 265 267 269 273 267
260 262 266 267 267 267 273 281 283 284 278 258 252 255 261 268 272 274 276 271 268 273 282 283 283 268 261 253 252 238 236 241 248 254 258 259 256 257 260 263 267 270 272 272
279 272 274 280 282 276 272 272 271 272 278 265 258 256 261 269 271 271 272 271 271 279 283 285 271 266 261 248 239 236 237 243 249 255 256 256 258 261 263 265 268 270 270 269
284 280 287 294 301 297 283 273 264 259 260 254 255 262 268 272 271 269 268 272 278 280 280 274 265 265 262 254 230 238 240 245 248 255 259 258 260 262 263 266 267 268 269 269
282 285 293 304 309 306 301 294 283 273 269 265 263 262 263 266 270 272 270 273 283 278 269 262 262 274 279 265 245 242 242 245 247 249 253 257 260 264 265 267 269 270 270 269
278 278 283 289 292 296 300 293 284 277 268 265 262 259 261 272 276 273 276 280 275 272 270 266 277 276 270 258 251 246 245 246 248 252 254 256 258 261 265 269 271 273 274 273
282 282 283 284 277 271 273 279 281 277 271 270 265 265 266 268 270 269 276 278 279 277 271 270 269 268 263 257 252 249 250 251 250 251 255 257 258 261 264 268 271 272 271 272
280 280 275 268 264 267 269 270 267 269 272 268 267 266 264 262 264 270 271 269 272 271 269 265 263 262 257 256 252 251 252 254 256 257 253 254 257 260 262 264 266 268 269 268
276 272 269 265 269 269 262 255 258 262 262 265 268 269 269 268 268 268 265 265 268 270 272 271 262 254 255 258 258 256 255 256 256 256 257 258 258 259 260 261 264 265 267 268
275 271 266 264 261 256 256 257 260 262 263 266 273 274 271 269 267 266 266 267 266 264 265 267 266 262 261 262 262 260 258 257 257 258 258 258 258 258 259 261 263 265 266 267